| time (UTC) | temp F | wind direction | speed MPH | gust MPH | rain 1hr in | rain 24hr in | rain mn in | humidity % | barometer mb |
| 20260901235603 | 77 | 116 | 1.0 | 2.0 | 0.00 | 0.07 | 0.01 | 92 | 1012.4 |
| 20260901235103 | 77 | 116 | 1.0 | 2.0 | 0.00 | 0.07 | 0.01 | 92 | 1012.4 |
| 20260901234605 | 78 | 116 | 0.0 | 2.0 | 0.00 | 0.07 | 0.01 | 92 | 1012.4 |
| 20260901233604 | 78 | 116 | 2.0 | 3.0 | 0.00 | 0.07 | 0.01 | 91 | 1012.3 |
| 20260901233103 | 79 | 116 | 1.0 | 2.0 | 0.00 | 0.07 | 0.01 | 91 | 1012.3 |
| 20260901232603 | 79 | 116 | 1.0 | 3.0 | 0.00 | 0.07 | 0.01 | 90 | 1012.3 |
| 20260901232103 | 79 | 176 | 1.0 | 2.0 | 0.00 | 0.07 | 0.01 | 90 | 1012.4 |
| 20260901231604 | 79 | 284 | 1.0 | 1.0 | 0.00 | 0.07 | 0.01 | 90 | 1012.5 |
| 20260901231105 | 80 | 284 | 0.0 | 2.0 | 0.00 | 0.07 | 0.01 | 90 | 1012.6 |
| 20260901230603 | 80 | 284 | 0.0 | 1.0 | 0.00 | 0.07 | 0.01 | 89 | 1012.6 |
| 20260901230103 | 80 | 284 | 0.0 | 2.0 | 0.00 | 0.07 | 0.01 | 89 | 1012.7 |
| 20260901225603 | 80 | 180 | 1.0 | 2.0 | 0.00 | 0.07 | 0.01 | 88 | 1012.7 |
| 20260901225103 | 80 | 108 | 0.0 | 1.0 | 0.00 | 0.07 | 0.01 | 89 | 1012.7 |
| 20260901224603 | 80 | 108 | 1.0 | 2.0 | 0.00 | 0.07 | 0.01 | 89 | 1012.7 |
| 20260901224103 | 80 | 108 | 1.0 | 3.0 | 0.00 | 0.07 | 0.01 | 88 | 1012.7 |
| 20260901223603 | 81 | 128 | 0.0 | 1.0 | 0.00 | 0.07 | 0.01 | 88 | 1012.8 |
| 20260901222603 | 81 | 134 | 2.0 | 3.0 | 0.00 | 0.07 | 0.01 | 87 | 1012.8 |
| 20260901221604 | 81 | 105 | 2.0 | 3.0 | 0.00 | 0.07 | 0.01 | 87 | 1012.8 |
| 20260901221103 | 82 | 118 | 3.0 | 5.0 | 0.00 | 0.07 | 0.01 | 87 | 1012.7 |
| 20260901220604 | 82 | 138 | 3.0 | 7.0 | 0.00 | 0.07 | 0.01 | 87 | 1012.7 |
| 20260901215603 | 82 | 106 | 2.0 | 5.0 | 0.00 | 0.07 | 0.01 | 87 | 1012.6 |
| 20260901214603 | 81 | 131 | 2.0 | 5.0 | 0.00 | 0.07 | 0.01 | 87 | 1012.7 |
| 20260901213604 | 82 | 127 | 3.0 | 5.0 | 0.00 | 0.07 | 0.01 | 86 | 1012.6 |
| 20260901213103 | 82 | 106 | 2.0 | 3.0 | 0.00 | 0.07 | 0.01 | 85 | 1012.7 |
| 20260901212603 | 82 | 129 | 2.0 | 3.0 | 0.00 | 0.07 | 0.01 | 84 | 1012.8 |
| 20260901212103 | 83 | 106 | 2.0 | 5.0 | 0.00 | 0.07 | 0.01 | 83 | 1012.7 |
| 20260901211604 | 83 | 79 | 2.0 | 3.0 | 0.00 | 0.07 | 0.01 | 81 | 1012.7 |
| 20260901210603 | 83 | 295 | 0.0 | 3.0 | 0.00 | 0.07 | 0.01 | 82 | 1012.6 |
| 20260901205604 | 84 | 318 | 1.0 | 3.0 | 0.00 | 0.07 | 0.01 | 82 | 1012.6 |
| 20260901205103 | 83 | 305 | 1.0 | 3.0 | 0.00 | 0.07 | 0.01 | 81 | 1012.5 |
| 20260901204603 | 84 | 255 | 0.0 | 3.0 | 0.00 | 0.07 | 0.01 | 80 | 1012.5 |
| 20260901203604 | 84 | 254 | 1.0 | 3.0 | 0.00 | 0.07 | 0.01 | 80 | 1012.6 |
| 20260901203105 | 85 | 269 | 2.0 | 3.0 | 0.00 | 0.07 | 0.01 | 80 | 1012.6 |
| 20260901202604 | 85 | 287 | 1.0 | 2.0 | 0.00 | 0.07 | 0.01 | 80 | 1012.6 |
| 20260901202104 | 85 | 230 | 1.0 | 2.0 | 0.00 | 0.07 | 0.01 | 79 | 1012.6 |
| 20260901201604 | 85 | 329 | 1.0 | 3.0 | 0.00 | 0.07 | 0.01 | 81 | 1012.7 |
| 20260901201103 | 84 | 310 | 0.0 | 6.0 | 0.00 | 0.07 | 0.01 | 81 | 1012.8 |
| 20260901200603 | 84 | 281 | 1.0 | 3.0 | 0.00 | 0.07 | 0.01 | 81 | 1012.8 |
| 20260901200104 | 84 | 128 | 2.0 | 3.0 | 0.00 | 0.07 | 0.01 | 81 | 1012.8 |
| 20260901195603 | 84 | 125 | 0.0 | 3.0 | 0.00 | 0.07 | 0.01 | 84 | 1012.8 |
| 20260901195103 | 83 | 106 | 2.0 | 5.0 | 0.00 | 0.07 | 0.01 | 83 | 1012.8 |
| 20260901194604 | 82 | 53 | 1.0 | 3.0 | 0.00 | 0.07 | 0.01 | 84 | 1012.8 |
| 20260901194104 | 82 | 73 | 1.0 | 3.0 | 0.00 | 0.07 | 0.01 | 85 | 1012.9 |
| 20260901193603 | 83 | 75 | 2.0 | 3.0 | 0.00 | 0.07 | 0.01 | 85 | 1012.9 |
| 20260901192604 | 83 | 111 | 3.0 | 5.0 | 0.00 | 0.08 | 0.01 | 84 | 1012.8 |
| 20260901192103 | 82 | 96 | 2.0 | 5.0 | 0.00 | 0.08 | 0.01 | 84 | 1012.8 |
| 20260901191604 | 82 | 93 | 3.0 | 5.0 | 0.00 | 0.08 | 0.01 | 84 | 1013.0 |
| 20260901190603 | 81 | 353 | 1.0 | 6.0 | 0.00 | 0.08 | 0.01 | 85 | 1013.0 |
| 20260901190103 | 81 | 349 | 2.0 | 7.0 | 0.00 | 0.08 | 0.01 | 85 | 1013.1 |
| 20260901185603 | 81 | 47 | 2.0 | 5.0 | 0.00 | 0.08 | 0.01 | 85 | 1013.1 |
| 20260901185103 | 81 | 25 | 1.0 | 3.0 | 0.00 | 0.09 | 0.01 | 85 | 1013.0 |
| 20260901184603 | 81 | 17 | 1.0 | 6.0 | 0.00 | 0.09 | 0.01 | 84 | 1013.1 |
| 20260901184104 | 81 | 7 | 3.0 | 6.0 | 0.00 | 0.09 | 0.01 | 86 | 1013.1 |
| 20260901183603 | 81 | 350 | 1.0 | 2.0 | 0.00 | 0.09 | 0.01 | 85 | 1013.1 |
| 20260901183103 | 81 | 354 | 1.0 | 3.0 | 0.00 | 0.09 | 0.01 | 84 | 1013.1 |
| 20260901182603 | 81 | 5 | 2.0 | 6.0 | 0.00 | 0.09 | 0.01 | 85 | 1013.1 |
| 20260901182104 | 81 | 359 | 2.0 | 7.0 | 0.00 | 0.09 | 0.01 | 84 | 1013.1 |
| 20260901181603 | 81 | 356 | 2.0 | 7.0 | 0.00 | 0.09 | 0.01 | 85 | 1013.2 |
| 20260901180604 | 81 | 19 | 2.0 | 6.0 | 0.00 | 0.09 | 0.01 | 85 | 1013.1 |
| 20260901180104 | 81 | 356 | 2.0 | 7.0 | 0.00 | 0.09 | 0.01 | 85 | 1013.0 |
| 20260901175103 | 82 | 42 | 1.0 | 5.0 | 0.00 | 0.09 | 0.01 | 84 | 1012.9 |
| 20260901174103 | 81 | 32 | 2.0 | 6.0 | 0.00 | 0.09 | 0.01 | 85 | 1012.8 |
| 20260901173603 | 81 | 50 | 2.0 | 7.0 | 0.00 | 0.12 | 0.01 | 84 | 1012.7 |
| 20260901173104 | 82 | 63 | 3.0 | 7.0 | 0.00 | 0.14 | 0.01 | 84 | 1012.6 |
| 20260901172604 | 82 | 11 | 3.0 | 8.0 | 0.00 | 0.14 | 0.01 | 86 | 1012.6 |
| 20260901172103 | 81 | 33 | 2.0 | 7.0 | 0.00 | 0.15 | 0.01 | 85 | 1012.6 |
| 20260901171603 | 81 | 57 | 1.0 | 3.0 | 0.00 | 0.15 | 0.01 | 85 | 1012.5 |
| 20260901171104 | 81 | 43 | 1.0 | 5.0 | 0.00 | 0.15 | 0.01 | 85 | 1012.5 |
| 20260901170603 | 81 | 39 | 1.0 | 5.0 | 0.00 | 0.15 | 0.01 | 85 | 1012.5 |
| 20260901170104 | 81 | 51 | 0.0 | 3.0 | 0.00 | 0.15 | 0.01 | 82 | 1012.5 |
| 20260901165603 | 81 | 19 | 0.0 | 6.0 | 0.00 | 0.15 | 0.01 | 83 | 1012.5 |
| 20260901165104 | 81 | 37 | 1.0 | 3.0 | 0.00 | 0.15 | 0.01 | 83 | 1012.6 |
| 20260901164104 | 81 | 323 | 1.0 | 3.0 | 0.00 | 0.15 | 0.01 | 84 | 1012.5 |
| 20260901163604 | 81 | 334 | 3.0 | 7.0 | 0.00 | 0.15 | 0.01 | 84 | 1012.7 |
| 20260901163103 | 81 | 309 | 1.0 | 3.0 | 0.00 | 0.15 | 0.01 | 84 | 1012.6 |
| 20260901162604 | 81 | 309 | 1.0 | 3.0 | 0.00 | 0.15 | 0.01 | 84 | 1012.5 |
| 20260901162103 | 81 | 17 | 1.0 | 3.0 | 0.00 | 0.15 | 0.01 | 82 | 1012.5 |
| 20260901161603 | 81 | 21 | 1.0 | 3.0 | 0.00 | 0.16 | 0.01 | 83 | 1012.5 |
| 20260901155604 | 82 | 357 | 2.0 | 7.0 | 0.00 | 0.16 | 0.01 | 83 | 1012.5 |
| 20260901155103 | 82 | 347 | 1.0 | 9.0 | 0.00 | 0.16 | 0.01 | 80 | 1012.5 |
| 20260901154604 | 83 | 322 | 5.0 | 7.0 | 0.00 | 0.16 | 0.01 | 80 | 1012.4 |
| 20260901153103 | 83 | 295 | 2.0 | 7.0 | 0.00 | 0.16 | 0.01 | 84 | 1012.4 |
| 20260901152604 | 83 | 151 | 1.0 | 6.0 | 0.00 | 0.16 | 0.01 | 83 | 1012.5 |
| 20260901152103 | 83 | 314 | 1.0 | 3.0 | 0.00 | 0.19 | 0.01 | 84 | 1012.4 |
| 20260901151603 | 82 | 215 | 1.0 | 2.0 | 0.00 | 0.19 | 0.01 | 82 | 1012.4 |
| 20260901151103 | 81 | 6 | 1.0 | 2.0 | 0.00 | 0.19 | 0.01 | 85 | 1012.3 |
| 20260901150603 | 81 | 320 | 2.0 | 5.0 | 0.00 | 0.19 | 0.01 | 82 | 1012.3 |
| 20260901150104 | 81 | 344 | 1.0 | 3.0 | 0.00 | 0.19 | 0.01 | 84 | 1012.3 |
| 20260901145604 | 80 | 243 | 1.0 | 3.0 | 0.00 | 0.19 | 0.01 | 84 | 1012.3 |
| 20260901145103 | 80 | 339 | 0.0 | 3.0 | 0.00 | 0.19 | 0.01 | 83 | 1012.3 |
| 20260901144604 | 81 | 321 | 1.0 | 3.0 | 0.00 | 0.19 | 0.01 | 82 | 1012.3 |
| 20260901144103 | 81 | 244 | 2.0 | 5.0 | 0.00 | 0.19 | 0.01 | 83 | 1012.2 |
| 20260901143603 | 81 | 319 | 2.0 | 3.0 | 0.00 | 0.19 | 0.01 | 85 | 1012.3 |
| 20260901142604 | 80 | 329 | 3.0 | 6.0 | 0.00 | 0.19 | 0.01 | 83 | 1012.3 |
| 20260901142103 | 80 | 297 | 1.0 | 3.0 | 0.00 | 0.19 | 0.01 | 85 | 1012.3 |
| 20260901141603 | 80 | 346 | 3.0 | 6.0 | 0.00 | 0.19 | 0.01 | 85 | 1012.3 |
| 20260901141103 | 80 | 316 | 3.0 | 6.0 | 0.00 | 0.20 | 0.01 | 86 | 1012.4 |
| 20260901140603 | 79 | 338 | 2.0 | 7.0 | 0.00 | 0.20 | 0.01 | 86 | 1012.5 |
| 20260901140103 | 78 | 351 | 6.0 | 9.0 | 0.00 | 0.20 | 0.01 | 86 | 1012.4 |
| 20260901135603 | 78 | 349 | 5.0 | 8.0 | 0.00 | 0.20 | 0.01 | 87 | 1012.4 |
| 20260901134603 | 78 | 356 | 6.0 | 9.0 | 0.00 | 0.21 | 0.01 | 88 | 1012.3 |
| 20260901134104 | 78 | 326 | 3.0 | 9.0 | 0.00 | 0.21 | 0.01 | 88 | 1012.3 |
| 20260901133603 | 78 | 321 | 6.0 | 12.0 | 0.00 | 0.22 | 0.01 | 88 | 1012.4 |
| 20260901133104 | 77 | 323 | 3.0 | 12.0 | 0.00 | 0.22 | 0.01 | 88 | 1012.4 |
| 20260901132103 | 77 | 309 | 3.0 | 8.0 | 0.00 | 0.23 | 0.01 | 90 | 1012.4 |
| 20260901131603 | 77 | 312 | 6.0 | 9.0 | 0.00 | 0.25 | 0.01 | 92 | 1012.5 |
| 20260901131104 | 77 | 329 | 4.0 | 7.0 | 0.00 | 0.27 | 0.01 | 94 | 1012.5 |
| 20260901130604 | 76 | 307 | 2.0 | 7.0 | 0.00 | 0.28 | 0.01 | 95 | 1012.5 |
| 20260901125603 | 75 | 318 | 4.0 | 9.0 | 0.00 | 0.35 | 0.01 | 97 | 1012.7 |
| 20260901125103 | 75 | 330 | 3.0 | 7.0 | 0.00 | 0.38 | 0.01 | 98 | 1012.7 |
| 20260901124603 | 74 | 330 | 3.0 | 7.0 | 0.00 | 0.38 | 0.01 | 99 | 1012.7 |
| 20260901123603 | 74 | 325 | 4.0 | 6.0 | 0.00 | 0.39 | 0.01 | 99 | 1012.7 |
| 20260901123104 | 73 | 345 | 3.0 | 7.0 | 0.00 | 0.39 | 0.01 | 100 | 1012.7 |
| 20260901122605 | 73 | 332 | 4.0 | 8.0 | 0.00 | 0.39 | 0.01 | 100 | 1012.6 |
| 20260901122104 | 73 | 330 | 2.0 | 6.0 | 0.00 | 0.41 | 0.01 | 100 | 1012.6 |
| 20260901121603 | 72 | 340 | 2.0 | 3.0 | 0.00 | 0.42 | 0.01 | 100 | 1012.6 |
| 20260901115604 | 72 | 292 | 2.0 | 3.0 | 0.00 | 0.59 | 0.01 | 100 | 1012.3 |
| 20260901114104 | 71 | 282 | 1.0 | 3.0 | 0.00 | 0.63 | 0.01 | 100 | 1012.3 |
| 20260901113103 | 70 | 348 | 0.0 | 0.0 | 0.00 | 0.63 | 0.01 | 100 | 1012.2 |
| 20260901112604 | 70 | 348 | 0.0 | 0.0 | 0.00 | 0.63 | 0.01 | 100 | 1012.1 |
| 20260901112103 | 70 | 348 | 0.0 | 0.0 | 0.00 | 0.63 | 0.01 | 100 | 1012.1 |
| 20260901111604 | 71 | 348 | 0.0 | 0.0 | 0.00 | 0.63 | 0.01 | 100 | 1012.1 |
| 20260901111103 | 71 | 348 | 0.0 | 1.0 | 0.00 | 0.64 | 0.01 | 100 | 1012.0 |
| 20260901110604 | 71 | 348 | 0.0 | 0.0 | 0.00 | 0.64 | 0.01 | 100 | 1012.1 |
| 20260901110103 | 71 | 348 | 0.0 | 0.0 | 0.00 | 0.64 | 0.01 | 100 | 1012.0 |
| 20260901105603 | 71 | 348 | 0.0 | 1.0 | 0.00 | 0.64 | 0.01 | 100 | 1012.0 |
| 20260901105103 | 71 | 348 | 0.0 | 0.0 | 0.00 | 0.64 | 0.01 | 100 | 1012.2 |
| 20260901104604 | 71 | 348 | 1.0 | 2.0 | 0.00 | 0.64 | 0.01 | 100 | 1012.2 |
| 20260901104104 | 71 | 348 | 0.0 | 1.0 | 0.00 | 0.64 | 0.01 | 100 | 1012.2 |
| 20260901103603 | 71 | 348 | 1.0 | 2.0 | 0.00 | 0.65 | 0.01 | 100 | 1012.2 |
| 20260901103104 | 71 | 348 | 1.0 | 2.0 | 0.00 | 0.66 | 0.01 | 100 | 1012.1 |
| 20260901102603 | 70 | 348 | 0.0 | 3.0 | 0.00 | 0.66 | 0.01 | 100 | 1012.0 |
| 20260901102103 | 70 | 331 | 1.0 | 3.0 | 0.00 | 0.66 | 0.01 | 100 | 1011.9 |
| 20260901101604 | 70 | 328 | 2.0 | 3.0 | 0.00 | 0.66 | 0.01 | 100 | 1011.9 |
| 20260901101104 | 70 | 315 | 2.0 | 3.0 | 0.00 | 0.66 | 0.01 | 100 | 1011.8 |
| 20260901100603 | 70 | 338 | 1.0 | 3.0 | 0.00 | 0.66 | 0.01 | 100 | 1011.8 |
| 20260901100103 | 70 | 278 | 0.0 | 1.0 | 0.00 | 0.66 | 0.01 | 100 | 1011.6 |
| 20260901095604 | 70 | 285 | 0.0 | 3.0 | 0.00 | 0.66 | 0.01 | 100 | 1011.5 |
| 20260901095103 | 70 | 229 | 1.0 | 3.0 | 0.00 | 0.66 | 0.01 | 100 | 1011.5 |
| 20260901094104 | 70 | 253 | 0.0 | 1.0 | 0.00 | 0.66 | 0.01 | 100 | 1011.5 |
| 20260901093603 | 70 | 213 | 0.0 | 2.0 | 0.00 | 0.66 | 0.01 | 100 | 1011.5 |
| 20260901093104 | 70 | 245 | 1.0 | 2.0 | 0.00 | 0.66 | 0.01 | 100 | 1011.5 |
| 20260901092104 | 70 | 275 | 1.0 | 3.0 | 0.00 | 0.66 | 0.01 | 100 | 1011.5 |
| 20260901091603 | 69 | 251 | 0.0 | 1.0 | 0.00 | 0.66 | 0.01 | 99 | 1011.4 |
| 20260901090603 | 69 | 243 | 1.0 | 2.0 | 0.00 | 0.67 | 0.01 | 99 | 1011.4 |
| 20260901085103 | 70 | 251 | 0.0 | 1.0 | 0.01 | 0.68 | 0.01 | 99 | 1011.4 |
| 20260901084604 | 70 | 196 | 1.0 | 2.0 | 0.01 | 0.68 | 0.01 | 99 | 1011.4 |
| 20260901084104 | 69 | 292 | 1.0 | 2.0 | 0.01 | 0.68 | 0.01 | 100 | 1011.4 |
| 20260901083603 | 69 | 255 | 1.0 | 3.0 | 0.01 | 0.68 | 0.01 | 99 | 1011.4 |
| 20260901082604 | 69 | 245 | 1.0 | 3.0 | 0.01 | 0.68 | 0.01 | 100 | 1011.4 |
| 20260901082105 | 69 | 230 | 1.0 | 3.0 | 0.01 | 0.68 | 0.01 | 99 | 1011.3 |
| 20260901081603 | 69 | 260 | 1.0 | 3.0 | 0.01 | 0.68 | 0.01 | 100 | 1011.4 |
| 20260901080604 | 69 | 231 | 1.0 | 2.0 | 0.01 | 0.68 | 0.01 | 100 | 1011.3 |
| 20260901075604 | 69 | 269 | 1.0 | 5.0 | 0.01 | 0.69 | 0.01 | 100 | 1011.5 |
| 20260901075104 | 69 | 266 | 1.0 | 5.0 | 0.00 | 0.68 | 0.00 | 100 | 1011.5 |
| 20260901074604 | 69 | 235 | 1.0 | 3.0 | 0.00 | 0.68 | 0.00 | 100 | 1011.6 |
| 20260901074104 | 69 | 242 | 1.0 | 2.0 | 0.00 | 0.68 | 0.00 | 100 | 1011.7 |
| 20260901073604 | 69 | 246 | 1.0 | 3.0 | 0.00 | 0.68 | 0.00 | 100 | 1011.6 |
| 20260901073103 | 69 | 232 | 2.0 | 6.0 | 0.00 | 0.69 | 0.00 | 100 | 1011.6 |
| 20260901072604 | 69 | 240 | 2.0 | 5.0 | 0.00 | 0.69 | 0.00 | 100 | 1011.7 |
| 20260901072103 | 69 | 236 | 2.0 | 5.0 | 0.00 | 0.69 | 0.00 | 100 | 1011.8 |
| 20260901071604 | 69 | 233 | 1.0 | 3.0 | 0.00 | 0.69 | 0.00 | 100 | 1011.9 |
| 20260901071103 | 69 | 247 | 2.0 | 3.0 | 0.00 | 0.69 | 0.00 | 100 | 1012.0 |
| 20260901070603 | 69 | 244 | 1.0 | 3.0 | 0.00 | 0.69 | 0.00 | 99 | 1012.0 |
| 20260901065604 | 69 | 229 | 2.0 | 5.0 | 0.00 | 0.69 | 0.00 | 99 | 1012.1 |
| 20260901065103 | 69 | 229 | 2.0 | 3.0 | 0.00 | 0.70 | 0.00 | 99 | 1012.1 |
| 20260901064103 | 69 | 270 | 0.0 | 3.0 | 0.00 | 0.70 | 0.00 | 99 | 1012.3 |
| 20260901063604 | 69 | 224 | 0.0 | 3.0 | 0.00 | 0.70 | 0.00 | 99 | 1012.4 |
| 20260901063104 | 69 | 241 | 1.0 | 3.0 | 0.00 | 0.70 | 0.00 | 99 | 1012.5 |
| 20260901062603 | 69 | 248 | 2.0 | 3.0 | 0.00 | 0.70 | 0.00 | 99 | 1012.5 |
| 20260901062103 | 69 | 212 | 1.0 | 3.0 | 0.00 | 0.70 | 0.00 | 99 | 1012.6 |
| 20260901061104 | 69 | 245 | 0.0 | 3.0 | 0.00 | 0.71 | 0.00 | 99 | 1012.8 |
| 20260901060603 | 69 | 228 | 1.0 | 5.0 | 0.00 | 0.71 | 0.00 | 99 | 1012.9 |
| 20260901055103 | 69 | 250 | 2.0 | 7.0 | 0.00 | 0.71 | 0.00 | 99 | 1013.0 |
| 20260901054604 | 69 | 240 | 1.0 | 3.0 | 0.00 | 0.72 | 0.00 | 99 | 1013.0 |
| 20260901053104 | 69 | 249 | 1.0 | 3.0 | 0.00 | 0.73 | 0.00 | 99 | 1013.2 |
| 20260901052104 | 69 | 253 | 1.0 | 3.0 | 0.00 | 0.73 | 0.00 | 99 | 1013.2 |
| 20260901051603 | 69 | 235 | 1.0 | 3.0 | 0.00 | 0.73 | 0.00 | 99 | 1013.2 |
| 20260901051104 | 70 | 223 | 1.0 | 3.0 | 0.00 | 0.73 | 0.00 | 99 | 1013.2 |
| 20260901050604 | 70 | 226 | 1.0 | 3.0 | 0.00 | 0.73 | 0.00 | 99 | 1013.3 |
| 20260901045603 | 70 | 230 | 1.0 | 3.0 | 0.00 | 0.73 | 0.00 | 99 | 1013.4 |
| 20260901045103 | 70 | 220 | 1.0 | 3.0 | 0.00 | 0.73 | 0.00 | 99 | 1013.5 |
| 20260901044604 | 70 | 264 | 1.0 | 2.0 | 0.00 | 0.73 | 0.00 | 99 | 1013.6 |
| 20260901044104 | 70 | 255 | 1.0 | 3.0 | 0.00 | 0.73 | 0.00 | 99 | 1013.7 |
| 20260901043604 | 70 | 235 | 1.0 | 2.0 | 0.00 | 0.73 | 0.00 | 99 | 1013.7 |
| 20260901043104 | 70 | 235 | 0.0 | 1.0 | 0.00 | 0.73 | 0.00 | 99 | 1013.8 |
| 20260901042603 | 70 | 235 | 1.0 | 2.0 | 0.00 | 0.73 | 0.00 | 99 | 1013.9 |
| 20260901042104 | 70 | 235 | 0.0 | 2.0 | 0.00 | 0.73 | 0.00 | 99 | 1013.9 |
| 20260901041103 | 70 | 235 | 0.0 | 1.0 | 0.00 | 0.73 | 0.00 | 99 | 1013.9 |
| 20260901040604 | 70 | 235 | 0.0 | 1.0 | 0.00 | 0.73 | 0.00 | 99 | 1014.0 |
| 20260901040104 | 70 | 235 | 0.0 | 0.0 | 0.00 | 0.73 | 0.00 | 99 | 1014.0 |
| 20260901035604 | 70 | 235 | 0.0 | 2.0 | 0.00 | 0.73 | 0.73 | 99 | 1014.1 |
| 20260901034604 | 70 | 235 | 0.0 | 2.0 | 0.00 | 0.73 | 0.73 | 99 | 1014.3 |
| 20260901034104 | 70 | 235 | 0.0 | 2.0 | 0.00 | 0.73 | 0.73 | 99 | 1014.3 |
| 20260901033603 | 70 | 235 | 0.0 | 1.0 | 0.00 | 0.73 | 0.73 | 99 | 1014.4 |
| 20260901032603 | 70 | 235 | 0.0 | 0.0 | 0.00 | 0.73 | 0.73 | 99 | 1014.3 |
| 20260901032104 | 70 | 235 | 0.0 | 1.0 | 0.00 | 0.73 | 0.73 | 99 | 1014.3 |
| 20260901031604 | 70 | 235 | 0.0 | 2.0 | 0.00 | 0.73 | 0.73 | 99 | 1014.3 |
| 20260901031104 | 70 | 235 | 0.0 | 1.0 | 0.00 | 0.73 | 0.73 | 99 | 1014.4 |
| 20260901030603 | 70 | 235 | 0.0 | 1.0 | 0.00 | 0.73 | 0.73 | 99 | 1014.4 |
| 20260901030104 | 70 | 235 | 0.0 | 0.0 | 0.00 | 0.73 | 0.73 | 99 | 1014.5 |
| 20260901025604 | 70 | 235 | 0.0 | 1.0 | 0.00 | 0.73 | 0.73 | 99 | 1014.5 |
| 20260901025104 | 70 | 235 | 0.0 | 2.0 | 0.00 | 0.73 | 0.73 | 99 | 1014.5 |
| 20260901024103 | 71 | 235 | 0.0 | 1.0 | 0.00 | 0.73 | 0.73 | 99 | 1014.8 |
| 20260901023605 | 71 | 235 | 1.0 | 2.0 | 0.00 | 0.73 | 0.73 | 99 | 1014.8 |
| 20260901023104 | 71 | 235 | 0.0 | 1.0 | 0.04 | 0.73 | 0.73 | 99 | 1014.9 |
| 20260901022603 | 71 | 235 | 1.0 | 2.0 | 0.05 | 0.73 | 0.73 | 99 | 1015.0 |
| 20260901022104 | 71 | 235 | 0.0 | 1.0 | 0.06 | 0.73 | 0.73 | 99 | 1015.0 |
| 20260901021603 | 71 | 235 | 0.0 | 1.0 | 0.06 | 0.73 | 0.73 | 99 | 1015.0 |
| 20260901021104 | 71 | 235 | 0.0 | 1.0 | 0.06 | 0.73 | 0.73 | 99 | 1015.0 |
| 20260901020603 | 71 | 237 | 0.0 | 2.0 | 0.06 | 0.73 | 0.73 | 99 | 1014.8 |
| 20260901020104 | 71 | 245 | 0.0 | 1.0 | 0.06 | 0.73 | 0.73 | 99 | 1014.8 |
| 20260901015604 | 71 | 245 | 1.0 | 2.0 | 0.06 | 0.73 | 0.73 | 99 | 1014.9 |
| 20260901015104 | 71 | 235 | 0.0 | 2.0 | 0.06 | 0.73 | 0.73 | 99 | 1014.8 |
| 20260901014103 | 71 | 219 | 0.0 | 1.0 | 0.06 | 0.73 | 0.73 | 99 | 1015.0 |
| 20260901013604 | 71 | 219 | 1.0 | 3.0 | 0.06 | 0.73 | 0.73 | 99 | 1015.0 |
| 20260901013104 | 71 | 253 | 1.0 | 3.0 | 0.02 | 0.69 | 0.69 | 99 | 1015.2 |
| 20260901012104 | 71 | 247 | 1.0 | 2.0 | 0.00 | 0.67 | 0.67 | 99 | 1015.3 |
| 20260901011104 | 71 | 272 | 0.0 | 1.0 | 0.00 | 0.67 | 0.67 | 99 | 1015.3 |
| 20260901010603 | 71 | 282 | 0.0 | 2.0 | 0.00 | 0.67 | 0.67 | 99 | 1015.2 |
| 20260901010103 | 71 | 225 | 0.0 | 2.0 | 0.00 | 0.67 | 0.67 | 99 | 1015.0 |
| 20260901005104 | 71 | 235 | 1.0 | 2.0 | 0.00 | 0.67 | 0.67 | 99 | 1014.8 |
| 20260901004604 | 71 | 267 | 1.0 | 3.0 | 0.00 | 0.67 | 0.67 | 99 | 1014.9 |
| 20260901004103 | 71 | 237 | 1.0 | 3.0 | 0.00 | 0.67 | 0.67 | 99 | 1014.8 |
| 20260901003604 | 71 | 289 | 1.0 | 2.0 | 0.00 | 0.67 | 0.67 | 99 | 1014.8 |
| 20260901002603 | 71 | 231 | 1.0 | 2.0 | 0.00 | 0.67 | 0.67 | 99 | 1014.5 |
| 20260901002104 | 72 | 235 | 0.0 | 1.0 | 0.00 | 0.67 | 0.67 | 99 | 1014.6 |
| 20260901001604 | 72 | 240 | 1.0 | 3.0 | 0.00 | 0.67 | 0.67 | 99 | 1014.6 |
| 20260901001104 | 72 | 242 | 0.0 | 3.0 | 0.00 | 0.67 | 0.67 | 99 | 1014.6 |
| 20260901000604 | 72 | 235 | 0.0 | 1.0 | 0.00 | 0.67 | 0.67 | 99 | 1014.5 |